Regional Weather Roundup
Issued by NWS

Home | Current Version | Previous Version | Text Only | Print | Product List | Glossary On
Versions: 1 2 3 4 5 6 7 8 9 10 11 12 13 14 15 16 17 18 19 20 21 22 23 24 25 26 27 28 29 30 31 32 33 34 35 36 37 38 39 40 41 42 43 44 45 46 47 48 49 50
000
ASUS43 KLSX 091107
RWRMO

WEATHER SUMMARY FOR MISSOURI
NATIONAL WEATHER SERVICE SPRINGFIELD MO
500 AM CST TUE FEB 09 2016

NOTE: "FAIR" INDICATES FEW OR NO CLOUDS BELOW 12,000 FEET WITH NO
       SIGNIFICANT WEATHER AND/OR OBSTRUCTIONS TO VISIBILITY.
       CURRENT SKY AND/OR WEATHER CONDITIONS ARE NOT AVAILABLE FOR
       CHILLICOTHE AND FARMINGTON.

MOZ001>031-035>038-043-044-053-054-091200-
...NORTHERN AND WESTERN MISSOURI...

CITY           SKY/WX    TMP DP  RH WIND       PRES   REMARKS
KANSAS CTY INT CLEAR     23   9  55 N18       30.06R WCI   9
KANSAS C DTWN  CLEAR     26   8  46 NW20G25   30.06R WCI  12
LEE`S SUMMIT   CLEAR     23   8  52 N22G31    30.05R WCI   8
ST JOSEPH      PTCLDY    19  10  68 N18       30.11R WCI   4
CHILLICOTHE      N/A     17   6  62 NW16G30   30.06R WCI   2
KIRKSVILLE     FLURRIES  16   6  65 NW12G23   29.98R WCI   3

$$
MOZ066>068-077>081-088>096-101>105-091200-
...SOUTHWEST MISSOURI...

CITY           SKY/WX    TMP DP  RH WIND       PRES   REMARKS
SPRINGFIELD    CLEAR     27  14  58 NW10      29.97S WCI  17
JOPLIN         PTCLDY    28  19  69 W10       30.06R WCI  19

$$
MOZ032>034-039>042-045>050-055>058-069>072-091200-
...CENTRAL MISSOURI...

CITY           SKY/WX    TMP DP  RH WIND       PRES   REMARKS
COLUMBIA       CLOUDY    19   7  59 NW24      29.96R WCI   2
JEFFERSON CITY FLURRIES  21  11  65 NW14G22   29.99R WCI   8
ROLLA          FLURRIES  20  12  71 NW15G23   29.90R WCI   6
SEDALIA        CLOUDY    22  13  68 NW16      30.02R WCI   8
WHITEMAN AFB   CLEAR     21  13  70 N18G29    30.01R WCI   7
WARRENSBURG    CLEAR     23  12  63 NW16G24   30.04R WCI  10
OSAGE BEACH    CLOUDY    23   9  54 W14G23    29.97R WCI  11

$$
MOZ051-052-059>065-091200-
...EAST CENTRAL MISSOURI...

CITY           SKY/WX    TMP DP  RH WIND       PRES   REMARKS
ST LOUIS INTL  FLURRIES  21  14  74 NW14      29.90S WCI   8
SPIRIT OF STL  LGT SNOW  21  15  78 NW6       29.92R WCI  13
ST CHARLES     LGT SNOW  20  14  77 NW14      29.91S WCI   7

$$
MOZ072>076-082>087-097>100-106>115-091200-
...SOUTH CENTRAL AND SOUTHEAST MISSOURI...

CITY           SKY/WX    TMP DP  RH WIND       PRES   REMARKS
CAPE GIRARDEAU FLURRIES  22  15  75 NW10      29.92S WCI  11
FARMINGTON     FLURRIES  21  16  81 NW10G17   29.89R WCI  10
POPLAR BLUFF   CLOUDY    28  17  63 NE3       29.92S
WEST PLAINS    CLEAR     24  12  60 NW14G22   29.92R WCI  12

$$


USA.gov is the U.S. government's official web portal to all federal, state and local government web resources and services.